Skip Page Navigation
NASA JPL Caltech
NASA Logo - Jet Propulsion Laboratory + View the NASA Portal
+ Center for Near-Earth Object Studies
JPL Home Earth Solar System Stars & Galaxies Technology
JPL Solar System Dynamics
BODIES ORBITS EPHEMERIDES TOOLS PHYSICAL DATA DISCOVERY FAQ SITE MAP
JPL Small-Body Database Browser
Search: [ help ]  
216314 (2007 TP187)
Classification: Main-belt Asteroid          SPK-ID: 2216314
Ephemeris | Orbit Diagram | Orbital Elements | Mission Design | Physical Parameters | Discovery Circumstances | Close-Approach Data ]

[ show orbit diagram ]
Orbital Elements at Epoch 2459200.5 (2020-Dec-17.0) TDB
Reference: JPL 16 (heliocentric ecliptic J2000)
 Element Value Uncertainty (1-sigma)   Units 
e .1748956061014367 9.8514e-08  
a 2.288477242427245 1.6814e-08 au
q 1.888232628063587 2.2088e-07 au
i 25.39890061016647 8.0622e-06 deg
node 52.11347038841447 1.2174e-05 deg
peri 359.1888347710824 2.2867e-05 deg
M 277.3498557062142 1.8347e-05 deg
tp 2459490.808291023177
(2021-Oct-03.30829102)
6.6176e-05 TDB
period 1264.498515536184
3.46
1.3935e-05
3.815e-08
d
yr
n .2846978431187398 3.1375e-09 deg/d
Q 2.688721856790902 1.9754e-08 au
  Orbit Determination Parameters
   # obs. used (total)      299  
   data-arc span      6819 days (18.67 yr)  
   first obs. used      2000-09-28  
   last obs. used      2019-05-31  
   planetary ephem.      DE441  
   SB-pert. ephem.      SB441-N16  
   condition code      0  
   norm. resid. RMS      .59482  
   source      ORB  
   producer      Otto Matic  
   solution date      2021-Apr-13 23:54:19  

Additional Information
 Earth MOID = .898484 au 
 Jupiter MOID = 2.70522 au 
 T_jup = 3.453 
[ show covariance matrix ]

Ephemeris | Orbit Diagram | Orbital Elements | Mission Design | Physical Parameters | Discovery Circumstances | Close-Approach Data ]

Physical Parameter Table
Parameter Symbol Value Units Sigma Reference Notes
absolute magnitude H 16.3   n/a MPO475772  

216314 (2007 TP187)          Discovered 2007-Oct-13 by LINEAR at Socorro
Reference: 20090607/Numbers.arcLast Updated: 2009-06-08

[ show close-approach data ]
Alternate Designations
 2007 TP187 = 2000 SC358 
Ephemeris | Orbit Diagram | Orbital Elements | Mission Design | Physical Parameters | Discovery Circumstances | Close-Approach Data ]
ABOUT SSD CREDITS/AWARDS PRIVACY/COPYRIGHT GLOSSARY LINKS
FirstGov 2021-Jun-22 05:43 UT
(server date/time)  
NASA Home Page
Site Manager:   Ryan S. Park
Webmaster  Alan B. Chamberlin